www.pogodaiklimat.ru

Погода и климат >> Архив погоды >> Россия >> Оренбургская область >> Акбулак


ПОГОДА в Акбулаке

  • Прогноз погоды в Акбулаке
  • Монитор погоды в Акбулаке

АРХИВ ПОГОДЫ в Акбулаке

Время (UTC), дата Ветер
(напр.,м/с)
 
Видим.   Явления Облачность Т
(С)
Тd
(С)
f
(%)
Тe
(С)
Тes
(С)
Комфортность P
(гПа)
Po
(гПа)
Тmin
(С)
Tmax
(С)
R
(мм)
R24
(мм)
S
(см)
09 9.07 ЮЗ 3 20 км 6/6 600 м
[Cu med, cong]
+33.6 +6.7 19 +32 +37 жарко 1006.2 990.1
12 9.07 ЮЗ 2
{10}
20 км 6/6 600 м
[Cu med, cong]
+33.8 +5.7 17 +31 +35 жарко 1005.1 989.0
15 9.07 ЮЗ 2 20 км 8/4 600 м
[Sc diur, vesp Ac As]
+32.1 +7.2 21 +30 +31 жарко 1004.8 988.7 +35.4
18 9.07 ЮВ 1 20 км 9/0
[Ac As Ci fib]
+24.8 +6.7 31 +25 +25 комфорт 1005.7 989.1
21 9.07 ЮВ 2 20 км ясно +22.4 +5.9 34 +23 +23 комфорт 1005.1 988.4
00 10.07 ЮВ 3 20 км 8/3 600 м
[Sc Ac As]
+22.2 +5.8 34 +23 +23 комфорт 1004.1 987.4
03 10.07 СЗ 2 20 км 10/4 600 м
[Sc Ac As]
+23.6 +9.8 42 +25 +25 комфорт 1004.3 987.7 +21.0
06 10.07 ЮВ 3 20 км 9/3 600 м
[Sc Ac As]
+26.7 +10.6 36 +27 +31 жарко 1004.3 987.9
09 10.07 Ю 4
{10}
20 км 9/1 600 м
[Cu hum Ac As Ci fib]
+32.3 +9.9 25 +32 +37 жарко 1002.9 986.8
12 10.07 ЮЗ 4
{10}
20 км 10/4 600 м
[Cb calv Ac und]
+31.8 +11.7 29 +32 +33 жарко 1002.3 986.2
15 10.07 В 1 20 км 10/5 600 м
[Cb calv Ac und]
+27.4 +14.5 45 +30 +30 жарко 1002.6 986.3 +32.8
18 10.07 штиль 0
{12}
20 км {ливн. осадки} 8/4 600 м
[Cb calv Ac cast]
+21.1 +18.9 87 +25 +25 комфорт 1004.3 987.7
21 10.07 В 1 20 км 3/0
[Ci fib]
+18.7 +17.4 92 +21 +21 комфорт 1005.5 988.6
00 11.07 СЗ 1 20 км 3/3 600 м
[Sc diur, vesp]
+16.5 +15.6 94 +17 +17 1006.5 989.5
03 11.07 З 1 20 км 3/3 600 м
[Sc]
+20.7 +15.8 74 +25 +28 комфорт 1007.4 990.6 +16.4 0.6
06 11.07 З 2 20 км 3/0
[Ci fib]
+27.6 +7.9 29 +27 +40 жарко 1007.5 991.1
09 11.07 СЗ 2 20 км 5/0
[Ci fib]
+29.0 +7.8 26 +28 +43 жарко 1007.8 991.5
12 11.07 З 1 20 км 4/3 600 м
[Cu hum Ci fib]
+30.6 +6.9 23 +29 +36 жарко 1007.4 991.1
15 11.07 СВ 2 20 км 3/0
[Ci fib]
+29.7 +6.9 24 +29 +29 жарко 1007.4 991.1 +31.1
18 11.07 СВ 4 20 км ясно +24.2 +9.0 38 +25 +25 комфорт 1008.1 991.5
21 11.07 ЮВ 3 20 км ясно +21.1 +8.7 45 +22 +22 комфорт 1008.0 991.2
00 12.07 ЮВ 1 20 км 1/0
[Ci fib]
+18.8 +8.8 52 +20 +20 1007.7 990.7
03 12.07 ЮВ 4 20 км 3/0
[Ci fib]
+23.6 +8.8 39 +24 +27 комфорт 1007.2 990.6 +17.9
06 12.07 ЮВ 4 20 км 5/0
[Ci fib]
+32.2 +11.9 29 +32 +40 жарко 1005.9 989.7
09 12.07 ЮВ 4 20 км 8/6 600 м
[Cb calv Ac As Ci fib]
+36.8 +9.6 19 +35 +39 очень
жарко
1003.9 988.0
12 12.07 ЮВ 4 20 км 6/6 600 м
[Cu Sc]
+38.1 +7.0 15 +36 +38 очень
жарко
1002.2 986.4
15 12.07 Ю 2
{11}
20 км ясно +37.3 +5.7 14 +35 +35 очень
жарко
1000.8 985.0 +38.4
18 12.07 штиль 0 20 км 6/0
[Ci fib]
+26.5 +10.3 36 +27 +27 жарко 1000.9 984.5
21 12.07 ЮВ 1 20 км 9/0
[Ci fib]
+24.3 +8.9 38 +25 +25 комфорт 1000.0 983.5
00 13.07 Ю 3 20 км 9/3 600 м
[Sc Ci fib]
+21.9 +8.3 42 +23 +23 комфорт 1000.8 984.2
03 13.07 В 2 20 км 9/0
[Ac As Ci fib]
+25.1 +9.4 37 +26 +28 жарко 1002.1 985.6 +21.1
06 13.07 В 3 20 км 10/4 600 м
[Sc Ac trans Ci fib]
+34.1 +10.9 24 +33 +37 жарко 1000.5 984.5
09 13.07 ЮВ 5-12
{14}
20 км 10/3 600 м
[Cb calv Ac As Ci fib]
+39.4 +5.7 13 +37 +40 очень
жарко
999.2 983.5
12 13.07 З 1
{15}
20 км 9/4 600 м
[Cb calv Ac As]
+34.7 +14.7 30 +36 +39 душно 1000.9 984.9
15 13.07 ЮЗ 6-12
{20}
20 км в посл. час ливневой дождь {гроза} 10/8 570 м
[Cb calv Ac lent]
+29.3 +13.2 37 +31 +31 жарко 1001.5 985.3 +39.9 6
18 13.07 ЮЗ 4
{19}
20 км {гроза, ливн. осадки} 10/6 600 м
[Cb calv Ac As]
+25.4 +14.7 52 +28 +28 жарко 1003.4 987.0
21 13.07 СЗ 3
{12}
20 км 6/0
[Ac As]
+22.4 +17.3 73 +27 +27 душно 1003.5 986.9
00 14.07 З 3 20 км 10/5 600 м
[Cb calv Ac As]
+19.8 +17.2 85 +23 +23 комфорт 1006.0 989.2
03 14.07 СЗ 3 20 км 9/0
[Ac As Ci fib]
+19.1 +16.4 84 +21 +22 комфорт 1005.7 988.9 +18.6
06 14.07 СЗ 2 20 км 5/0
[Ac trans Ci fib]
+24.9 +16.3 59 +28 +39 жарко 1006.2 989.7
09 14.07 СЗ 2 20 км 9/0
[Ci fib]
+29.0 +15.2 43 +32 +45 душно 1005.2 988.9
12 14.07 З 2 20 км 9/3 600 м
[Sc Ac As Ci fib]
+28.8 +15.1 43 +31 +35 жарко 1004.6 988.3
15 14.07 С 4 20 км 9/4 600 м
[Sc Ac As Ci fib]
+26.9 +16.7 54 +31 +31 душно 1003.5 987.1 +30.7
18 14.07 СВ 5
{11}
20 км 8/4 600 м
[Sc Ac As]
+23.6 +15.5 60 +27 +27 жарко 1000.4 983.9
21 14.07 СЗ 4
{11}
20 км 6/3 600 м
[Sc Ac As]
+21.5 +18.9 85 +26 +26 душно 998.1 981.5
00 15.07 СЗ 6-10
{19}
20 км в посл. час гроза {ливн. осадки} 8/8 500 м
[Cb calv]
+16.9 +14.1 84 +16 +16 997.1 980.3
03 15.07 ЮЗ 4
{12}
20 км 1/1 600 м
[Sc diur, vesp]
+18.0 +15.4 85 +18 +20 998.8 982.0 +16.6 1
06 15.07 З 5-12
{12}
20 км 9/9 660 м
[Sc]
+18.3 +14.9 81 +18 +19 1001.8 984.9
09 15.07 З 6-12
{15}
20 км 9/8 700 м
[Sc Ci fib]
+22.5 +12.3 52 +25 +26 комфорт 1004.4 987.8
12 15.07 СЗ 5
{15}
20 км 5/5 600 м
[Sc]
+24.6 +11.9 45 +26 +28 жарко 1006.1 989.5
15 15.07 СЗ 3
{13}
20 км ясно +23.7 +10.8 44 +25 +26 комфорт 1007.4 990.8 +24.9
18 15.07 СВ 2 20 км ясно +17.1 +10.9 67 +17 +17 1009.6 992.6
21 15.07 штиль 0 20 км ясно +13.5 +10.0 79 +13 +13 1010.7 993.4
00 16.07 штиль 0 20 км ясно +11.3 +9.5 89 +11 +11 1011.9 994.5
03 16.07 штиль 0 20 км ясно +17.4 +11.1 66 +17 +22 1012.9 995.8 +10.6

 

Местоположение метеостанции Акбулак (Оренбургская область, Россия): широта 51.02 долгота 55.63 высота над уровнем моря 144 м.

В архиве по умолчанию представлена погода в Акбулаке за последнюю неделю. Архивные данные за месяц целиком и за предыдущие месяцы, начиная с января 2011 года, Вы можете получить, выбрав интересующий диапазон дат из раскрывающегося списка и нажав кнопку "Ввод!".


*Определитесь, кто Вы:
робот инопланетянин человек

Внимание! Время в таблицах - всемирное. Для получения местного времени необходимо прибавить поправку, которая равна 5 ч.

Смотрите также архив погоды в соседних городах и на ближайших метеорологических станциях:

Погода в Соль-Илецк (Оренбургская область, Россия) (45 км)
Погода в Мартуке (Актюбинская область, Казахстан) (70 км)
Погода в Беляевке (Оренбургская область, Россия) (71 км)
Погода в Оренбурге (Оренбургская область, Россия) (82 км)
Погода в Новоалексеевке (Костанайская область, Казахстан) (99 км)
Погода в Татарской Каргале (Оренбургская область, Россия) (103 км)
Погода в Чингирлау (Западно-Казахстанская область, Казахстан) (107 км)
Погода в Родниковке (Актюбинская область, Казахстан) (116 км)
Погода в Каралаатсае (Актюбинская область, Казахстан) (127 км)
Погода в Кувандыке (Оренбургская область, Россия) (131 км)

Пояснения к столбцам:

Ветер - указаны скорость ветра в м/с - средняя за 10 мин, порывы в срок и между сроками (в фигурных скобках) и направление, откуда дует ветер: С - северный, СВ - северо-восточный, В - восточный, ЮВ - юго-восточный, Ю - южный, ЮЗ - юго-западный, З - западный, СЗ - северо-западный.
Видимость - горизонтальная дальность видимости в метрах или километрах. При видимости от 1 до 10 км при отсутствии осадков обычно наблюдается дымка, при ухудшении видимости до 1 км и менее - туман. В сухую погоду видимость может ухудшаться дымом, пылью или мглою.
Явления - указаны атмосферные явления, наблюдавшиеся в срок или в последний час перед сроком; фигурными скобками обозначены явления, наблюдавшиеся между сроками (за 1-3 часа до срока); квадратными скобками обозначены град или гололедные отложения с указанием их диаметра в мм.
Облачность - указаны через наклонную черту общая и нижняя облачность в баллах и высота нижней границы облаков в метрах; квадратными скобками обозначены формы облаков: Ci - перистые, Cs - перисто-слоистые, Cc - перисто-кучевые, Ac - высококучевые, As - высокослоистые, Sc - слоисто-кучевые, Ns - слоисто-дождевые, Cu - кучевые, Cb - кучево-дождевые. Подробнее классификацию облаков см. в Атласе облаков (PDF).
T - Температура воздуха - температура, измеренная на высоте 2 м над землей.
Td - Температура точки росы - температура, при понижении до которой содержащийся в воздухе водяной пар достигнет насыщения.
f - Относительная влажность воздуха - влажноcть воздуха, измеренная на высоте 2 м над землей.
Te - Эффективная температура - температура, которую ощущает одетый по сезону человек в тени. Характеристика душности погоды. При расчете учитывается влияние влажности воздуха и скорости ветра на теплоощущения человека.
Tes - Эффективная температура на солнце - температура, которую ощущает человек, с поправкой на солнечный нагрев. Характеристика знойности погоды. Зависит от высоты солнца над горизонтом, облачности и скорости ветра. Ночью, в пасмурную погоду, а также при ветре 12 м/с и более поправка равна нулю.
P - Атмосферное давление - приведенное к уровню моря атмосферное давление.
Po - Атмосферное давление - измеренное на уровне метеостанции атмосферное давление.
Tmin - Минимальная температура - минимум температуры воздуха на высоте 2 м над землей.
Tmax - Максимальная температура - максимум температуры воздуха на высоте 2 м над землей.
R - Количество осадков - Количество выпавших осадков за период времени, мм. При наведении курсора мыши на число - период времени, за который выпало указанное количество осадков.
R24 - Количество осадков - Количество выпавших осадков за 24 часа, мм.
S - Снежный покров - Высота снежного покрова, см. При наведении курсора мыши на число - состояние снежного покрова и степень покрытия местности в баллах.